CZ-6A DEB, 56629

Orbit data source: Space-Track

CZ-6A DEB, 56629 is space debris in SSO originally from a launch on Fri, 11 Nov 2022 UTC launched from the Taiyaun Space Center, China (TSC). Debris objects in space refer to the collection of defunct objects orbiting the Earth. Examples of debris include non-operational satellites, rocket bodies, and fragments generated from explosions, collisions, or faulty payload assembly.

Loading next visibility...
Identifier
56629, 2022-151AFD
Orbit
SSO
Country
Flag of CNCN / PRC
Related business
Manufacturer
SAST
Mission
Spacecraft
Bus & Motor
Unknown
Mass
Unknown
Launch date (UTC)
2022-11-11 (4 years ago)
Launch vehicle
Unknown
Launch site
Taiyaun Space Center, China (TSC)
Object type
Payload
Rocket body
Debris
Shape & HBR
Unknown shape, 0.1 m
Radar Cross Section
Small (<0.1 m²)

Expand to show TLE details & history
Last TLE update: 1 day ago

TLE from 1 day ago
0 CZ-6A DEB
1 56629U 22151AFD 26234.90260940  .00006462  00000-0  12562-2 0  9992
2 56629  98.6215 289.9007 0073450 123.1025 237.7253 14.61766725176401
Epoch: 2026-08-22T21:39Z
TLE epoch observation values (Epoch: 2026-08-22T21:39:45.452Z)
Latitude
-0.00005°
Longitude
-6.24503°
Altitude
718.438 km
Speed
7.481 km/s
True Right ascension
19h 19m 36s
True Declination
0° 00' 00"
Sunlit
Object was in full shadow at epoch
Visualization orbit readout
Latitude
Unknown
Longitude
Unknown
Altitude
Unknown
Speed
Unknown
Apparent Right ascension
Unknown
Apparent Declination
Unknown
Sunlit
N/A
Visualization observer readout
Local Sidereal Time
20:45:41
Azimuth
Unknown
Elevation
Unknown
Doppler factor
Unknown
Orbital elements
Apogee altitude
736.449 km
Perigee altitude
632.698 km
Semi-major axis
7,062.711 km
Eccentricity
0.00735
Inclination
98.6215°
RAAN
289.9007°
Arg. of periapsis
123.1025°
True anomaly
237.01716°
Mean anomaly
237.7253°
Eccentric anomaly
237.37088°
Mean motion
3.65667 °/min
Orbital period
98.45 mins
BSTAR
0.0012562
Loading maneuver chart data...
Computing Atmospheric mass density...
Loading historical data...
Loading historical data...
Loading historical data...
Loading historical data...
Loading historical data...
Loading historical data...
Loading historical data...

Documentation

Showing up to 5 results
|